Regional Weather Roundup
Issued by NWS

Home | Current Version | Previous Version | Graphics & Text | Print | Product List | Glossary On
Versions: 1 2 3 4 5 6 7 8 9 10 11 12 13 14 15 16 17 18 19 20 21 22 23 24 25 26 27 28 29 30 31 32 33 34 35 36 37 38 39 40 41 42 43 44 45 46 47 48 49 50
000
ASUS43 KFSD 070402
RWRSD

WEATHER ROUNDUP FOR SOUTH DAKOTA
NATIONAL WEATHER SERVICE SIOUX FALLS SD
1000 PM CST FRI MAR 06 2015

NOTE: "FAIR" INDICATES FEW OR NO CLOUDS BELOW 12,000 FEET WITH NO
SIGNIFICANT WEATHER AND/OR OBSTRUCTIONS TO VISIBILITY.


SDZ001>005-009-010-012>017-070500-
NORTHWEST AND NORTH CENTRAL SOUTH DAKOTA

CITY           SKY/WX    TMP DP  RH WIND       PRES   REMARKS
BUFFALO          N/A     40  23  50 N14       30.04R
FAITH            N/A     40  19  43 W9        30.07R
MOBRIDGE       CLOUDY    39  27  62 CALM      30.02R
$$

SDZ012>016-024>037-041>051-057-063-072>074-070500-
SOUTHWEST AND SOUTH CENTRAL SOUTH DAKOTA

CITY           SKY/WX    TMP DP  RH WIND       PRES   REMARKS
RAPID CTY ARPT CLOUDY    41  23  48 W10       30.12R
PIERRE         MOCLDY    38  22  52 W8        30.04R
CUSTER         CLEAR     37  18  46 W8        30.16R
ELLSWORTH AFB  CLOUDY    39  22  52 W10       30.11R
PHILIP         MOCLDY    39  20  46 W8        30.08R
PINE RIDGE     CLEAR     36  24  62 SW8       30.17R
SPEARFISH      CLOUDY    46  23  39 W13G18    30.14R
WINNER         FAIR      46  21  37 W13       30.07S
$$

SDZ004>011-016>023-039-040-070500-
NORTHEAST SOUTH DAKOTA

CITY           SKY/WX    TMP DP  RH WIND       PRES   REMARKS
ABERDEEN       CLOUDY    31  25  78 S9        30.02F WCI  23
WATERTOWN      PTCLDY    29  23  78 S12       30.01R WCI  19
SISSETON         N/A     36  24  62 W18       29.94
$$

SDZ017-020-022-023-036>040-048>070-070500-
SOUTHEAST SOUTH DAKOTA

CITY           SKY/WX    TMP DP  RH WIND       PRES   REMARKS
SIOUX FALLS    CLOUDY    31  26  82 S5        30.05F WCI  26
HURON          MOCLDY    35  23  61 S7        30.03R WCI  29
MITCHELL       PTCLDY    35  21  56 S7        30.06R WCI  29
YANKTON        CLOUDY    43  19  39 S6        30.09F
$$

ABBREVIATIONS USED IN REMARKS
   TC - TEMPERATURE IN CELSIUS
  WCI - WIND CHILL INDEX
   HX - HEAT INDEX
  VSB - VISIBILITY




USA.gov is the U.S. government's official web portal to all federal, state and local government web resources and services.